Temp
20 19 19 19 19 19 19 19 19 19 18 19 20 19 19 18 18 18 18 18 17 16 16 16 16 16 16 16 16 16 15 16 16
19 19 19 19 19 18 18 18 18 18 18 18 19 19 19 19 18 18 18 18 17 16 17 16 16 16 16 16 16 15 15 15 15
19 19 19 19 19 18 18 18 18 18 18 18 19 19 19 19 18 18 18 18 18 16 16 16 17 16 16 16 16 16 16 16 15
19 19 19 18 18 18 18 18 18 18 18 18 18 19 19 19 19 19 18 18 18 17 17 17 16 16 16 16 16 16 16 16 16
19 19 19 18 18 18 18 18 18 18 18 18 18 18 18 19 19 18 18 18 17 17 18 17 16 17 17 17 16 16 16 16 16
19 18 19 19 18 18 18 18 18 18 18 18 18 18 18 19 19 19 18 18 18 17 18 17 17 16 17 17 16 16 16 16 16
19 19 18 18 18 18 18 18 18 17 18 18 18 18 18 19 19 19 19 18 18 17 18 18 17 16 16 17 16 16 16 16 16
19 19 19 18 18 18 18 18 17 17 17 18 18 18 19 19 19 19 19 19 18 18 18 18 18 17 17 17 17 16 16 16 16
19 19 19 18 18 18 18 18 18 18 18 18 18 18 18 19 19 19 19 19 18 18 18 17 17 17 17 16 16 16 16 16 16
20 20 20 19 19 18 18 18 18 18 18 18 18 18 18 18 19 19 19 19 19 19 19 17 17 16 16 16 16 16 16 16 16
20 20 20 20 19 19 18 18 18 18 18 18 18 18 18 18 18 19 19 19 19 19 19 19 18 17 17 17 16 16 17 16 16
20 20 20 20 19 19 18 17 17 17 17 17 17 18 18 18 18 19 19 19 19 19 19 19 19 19 17 17 17 17 17 17 17
19 19 20 20 19 19 18 18 17 17 17 17 17 18 18 19 19 19 19 19 19 19 19 19 19 19 19 17 17 17 17 17 17
17 18 19 20 19 18 18 18 17 17 17 17 18 18 18 18 19 19 19 19 19 19 19 19 19 19 19 19 17 17 17 17 17
17 17 18 19 19 18 18 18 17 17 17 17 17 17 17 17 18 18 18 18 19 19 19 19 19 19 19 19 19 18 17 18 18
17 17 18 18 18 18 18 18 17 17 17 16 16 17 17 17 18 18 18 18 18 18 19 19 19 19 19 19 19 19 18 18 18
16 17 19 18 18 18 18 17 17 17 17 16 14 13 15 17 17 18 18 18 18 18 18 18 18 19 19 19 19 19 19 19 19
16 15 16 16 17 17 17 17 16 16 16 16 16 13 14 13 17 17 18 18 18 17 17 17 18 18 18 19 19 19 19 19 19
15 15 14 15 16 16 16 15 15 15 15 15 15 16 15 15 16 17 17 17 18 17 17 16 16 18 18 18 18 18 18 18 19
15 14 14 15 13 14 14 14 14 14 14 14 14 14 14 15 14 15 16 16 17 18 17 17 17 17 16 17 17 17 17 18 18
Height
816 816 817 817 817 818 818 819 819 820 821 822 822 823 824 824 824 824 824 825 825 825 825 825 825 825 825 825 825 824 824 824 824
816 816 816 816 817 818 818 819 819 820 820 821 822 823 824 824 824 824 824 825 824 824 823 823 824 824 824 825 825 825 825 824 824
814 814 815 816 817 817 818 818 818 820 820 821 821 822 823 824 824 824 824 824 824 824 824 824 824 824 823 824 824 824 824 824 824
812 812 813 814 815 816 817 817 818 819 819 820 820 821 822 823 823 823 824 824 824 824 824 824 825 825 824 824 824 824 823 824 823
811 811 812 813 813 814 815 816 817 817 818 819 820 821 821 822 822 823 823 824 824 824 824 824 825 824 824 824 824 823 823 823 823
809 810 810 810 812 812 813 814 815 815 816 817 818 819 820 821 821 822 822 823 823 823 823 823 824 824 824 824 823 823 823 823 823
805 806 807 808 809 810 811 812 812 813 814 815 815 816 817 818 819 820 821 821 822 822 821 821 821 822 822 822 822 822 822 822 822
802 803 804 804 806 808 809 810 810 810 811 813 814 814 814 815 816 817 818 818 820 820 819 819 819 819 818 818 819 819 820 820 820
797 797 800 801 802 803 805 806 807 808 809 810 811 811 811 812 813 814 814 815 815 816 817 816 816 816 816 816 816 817 817 817 817
793 793 794 796 797 799 801 802 803 804 805 806 807 807 808 809 809 810 811 811 812 813 813 814 813 812 812 812 812 813 814 814 814
787 789 789 791 793 795 796 799 800 801 802 802 803 803 804 805 806 806 807 808 809 810 810 809 809 810 810 811 810 810 810 810 811
785 784 785 787 789 792 793 795 796 797 799 799 799 800 800 801 802 803 803 804 804 805 805 805 804 805 806 807 807 806 806 806 806
780 781 781 783 786 787 789 791 792 793 794 795 795 796 796 797 798 798 798 799 799 800 800 800 800 800 800 801 801 802 802 801 801
777 778 778 779 782 783 786 787 788 790 790 790 791 791 792 792 793 792 792 792 793 793 794 794 794 795 795 795 796 797 796 796 796
774 774 774 775 776 779 782 784 786 786 787 788 787 787 787 787 787 786 786 786 785 786 787 787 787 789 789 790 789 790 790 790 790
768 770 771 772 774 775 778 780 782 783 784 785 784 782 782 781 780 779 779 779 779 779 779 779 779 780 781 782 783 783 784 783 785
764 767 766 768 770 771 775 776 778 780 782 783 784 782 776 773 771 771 771 770 772 771 771 771 771 772 772 774 775 776 777 777 779
760 762 763 767 769 767 771 773 775 776 778 780 781 781 777 772 766 764 764 764 763 763 764 763 763 764 765 765 767 769 770 771 771
757 759 761 764 765 768 766 770 772 774 774 775 775 774 773 772 763 760 759 759 757 757 756 756 756 757 757 757 758 761 763 764 764
755 757 758 759 763 763 767 766 768 770 771 771 769 768 767 767 765 754 752 752 750 749 749 749 749 749 749 749 750 752 754 756 757
Wind_Speed
9 9 7 12 9 9 7 7 8 8 8 10 10 9 7 6 8 8 6 3 6 6 6 7 6 6 6 6 7 6 7 7 8
8 9 7 12 10 9 7 8 9 9 9 9 8 9 7 5 6 8 4 1 5 6 6 7 7 6 5 5 5 5 5 5 6
11 9 9 13 11 9 8 9 11 10 10 9 8 9 7 6 6 8 6 3 4 6 5 5 5 5 5 4 4 4 3 3 3
13 12 11 13 12 10 9 8 11 11 11 12 11 9 9 8 5 10 9 6 5 5 5 5 5 4 4 4 3 3 3 1 2
14 14 13 14 14 13 11 9 9 11 12 13 13 11 10 11 8 10 10 9 7 6 6 6 6 6 5 5 4 4 3 2 1
16 17 16 16 15 15 14 12 11 12 12 12 13 13 11 11 11 10 11 12 10 9 9 8 8 8 7 7 6 6 6 5 3
18 19 19 17 17 17 16 15 13 14 14 14 14 14 12 12 14 13 11 14 13 12 11 11 11 10 10 10 9 8 8 8 7
20 20 20 21 20 19 19 18 17 17 17 17 16 16 15 15 16 17 15 18 17 14 14 14 14 14 13 13 12 12 11 11 10
21 22 21 21 22 22 22 21 20 18 17 18 19 19 18 16 15 19 17 19 21 17 17 16 17 17 17 16 15 15 14 14 13
22 23 23 24 23 22 24 24 22 21 21 20 22 23 22 20 19 18 20 18 24 22 19 18 19 20 19 19 18 18 17 17 15
25 24 23 25 22 22 25 26 24 23 22 22 22 22 24 24 22 22 22 22 23 25 23 21 21 22 22 21 21 20 19 19 19
23 23 23 22 21 21 22 23 22 21 22 26 26 23 23 24 26 24 25 27 26 26 26 25 24 23 24 24 24 25 23 22 22
21 20 23 21 17 18 20 21 21 23 23 24 24 22 26 25 24 26 28 30 28 29 30 31 30 27 26 26 26 26 25 23 22
21 26 23 23 17 16 16 17 19 20 22 23 23 25 27 27 27 29 29 32 33 34 34 34 34 32 29 28 27 27 27 26 25
22 25 25 20 19 17 16 16 15 17 17 17 20 21 23 25 28 32 32 33 32 33 35 37 35 35 34 31 30 30 31 31 30
27 29 23 22 22 15 15 15 17 17 16 15 18 22 23 26 30 32 34 36 37 37 36 36 36 37 38 36 33 33 32 31 31
24 25 23 19 17 16 14 15 17 19 17 8 4 3 7 20 27 31 33 37 37 40 38 41 43 40 41 40 38 36 35 33 34
18 20 13 17 18 14 13 12 15 18 17 17 10 3 4 4 9 20 26 29 32 36 40 41 42 42 40 42 41 40 38 38 40
21 14 12 10 10 10 8 10 13 15 20 17 20 27 21 8 9 15 25 28 29 31 32 35 38 42 45 42 40 42 42 41 38
22 18 17 9 2 3 7 10 13 17 20 20 19 21 23 25 13 13 14 25 32 33 34 37 38 39 41 43 42 44 45 41 38
Wind_Direction
194 190 197 185 168 166 167 165 157 151 141 149 151 147 130 117 126 146 137 123 128 130 115 111 107 103 95 89 81 80 80 76 73
203 204 209 195 188 183 186 190 182 171 170 166 170 169 158 151 155 166 169 178 155 146 140 138 135 128 120 112 104 95 87 83 78
211 220 208 200 199 200 204 206 200 198 198 197 195 190 186 178 180 192 200 213 188 167 162 157 155 152 146 142 136 125 109 93 79
221 219 210 208 211 216 217 215 210 212 212 212 209 200 202 206 209 201 206 220 205 199 193 182 182 183 184 176 171 164 158 136 102
225 223 221 218 220 222 225 220 220 221 218 215 218 217 218 222 225 213 220 222 212 221 220 211 209 212 215 212 208 208 209 216 214
231 231 228 223 225 224 225 225 238 232 223 221 222 221 228 233 223 221 228 226 219 230 234 228 224 226 232 235 234 234 232 237 247
234 234 234 232 229 226 230 230 236 232 232 227 224 228 234 237 226 231 239 227 228 231 242 237 232 232 239 242 243 245 247 247 252
238 236 234 231 230 230 228 230 236 234 232 236 237 240 241 239 235 235 243 236 229 233 242 244 240 238 238 239 242 243 244 246 251
235 235 232 231 228 227 228 231 239 241 241 241 243 244 245 244 246 239 245 237 229 235 238 246 245 244 244 243 244 245 247 249 252
237 236 234 233 235 230 230 233 239 242 246 249 248 248 247 248 248 249 241 248 238 240 247 242 242 243 243 242 243 246 249 251 253
235 234 235 231 233 237 238 238 242 247 249 251 254 255 250 249 250 253 249 250 250 245 247 249 246 244 247 250 250 251 251 251 254
243 235 232 228 232 238 239 241 246 252 257 256 258 261 261 256 251 256 255 252 253 251 247 252 257 255 247 248 252 255 258 258 258
239 232 229 228 233 236 239 241 242 246 250 257 266 268 265 260 255 257 259 259 257 254 253 254 253 257 260 249 248 251 255 258 258
250 243 236 231 222 227 233 236 241 247 255 262 269 267 264 259 259 260 264 264 263 260 259 258 254 255 258 258 251 251 251 253 254
257 247 235 226 226 223 230 237 239 250 260 270 275 275 271 271 265 263 267 265 261 258 261 260 254 254 254 257 259 256 250 253 254
249 239 229 215 219 221 233 237 242 248 254 270 277 276 274 269 266 262 263 262 261 260 258 261 254 255 256 251 254 255 256 255 262
246 236 230 232 214 215 232 235 242 249 251 243 274 287 288 264 259 260 261 261 260 262 255 258 261 256 255 251 251 252 255 259 266
255 235 234 221 215 216 226 241 240 246 256 248 230 286 246 323 255 253 257 260 260 260 257 261 254 259 259 256 252 247 254 261 273
236 220 219 233 227 229 242 253 261 264 270 273 254 251 258 274 287 266 258 257 259 265 264 261 259 257 258 256 254 250 252 267 269
236 217 211 212 236 283 274 275 278 281 277 268 267 261 252 255 260 278 268 260 257 257 262 268 267 263 258 258 257 259 262 262 271